Regional Weather Roundup
Issued by NWS

Home | Current Version | Previous Version | Graphics & Text | Print | Product List | Glossary On
Versions: 1 2 3 4 5 6 7 8 9 10 11 12 13 14 15 16 17 18 19 20 21 22 23 24 25 26 27 28 29 30 31 32 33 34 35 36 37 38 39 40 41 42 43 44 45 46 47 48 49
837
ASUS45 KCYS 050110
RWRWY

WYOMING REGIONAL WEATHER ROUNDUP
NATIONAL WEATHER SERVICE CHEYENNE WY
600 PM MST THU FEB 04 2016

NOTE:  "FAIR" INDICATES FEW OR NO CLOUDS BELOW 12,000 FEET
WITH NO SIGNIFICANT WEATHER AND/OR OBSTRUCTIONS TO VISIBILITY.

WYZ001-050200-
YELLOWSTONE NATIONAL PARK

CITY           SKY/WX    TMP DP  RH WIND       PRES   REMARKS
LK YELLOWSTONE   N/A     13   7  77 CALM      30.18R
W YELLOWSTONE  NOT AVBL

$$
WYZ002>013-054>058-071-098>099-050200-
NORTHERN WYOMING

CITY           SKY/WX    TMP DP  RH WIND       PRES   REMARKS
JACKSON        CLOUDY    19  18  93 S9        30.23  WCI   9
CODY           FAIR      30   9  40 SW13G26   30.07R WCI  20
GREYBULL       FAIR      24  10  55 E5        30.14S WCI  18
WORLAND        FAIR      20  13  74 S8        30.13R WCI  10
SHERIDAN       MOCLDY    30  16  55 CALM      30.02R
BUFFALO        FAIR      31  10  41 CALM      30.02S
GILLETTE       FAIR      28  18  66 SW15      30.03R WCI  16
HULETT         CLOUDY    32  19  59 W5        30.04R WCI  27
NEWCASTLE      FAIR      28  16  59 W3        30.08R

$$
WYZ014>020-022>026-101>103-050200-
CENTRAL WYOMING

CITY           SKY/WX    TMP DP  RH WIND       PRES   REMARKS
BIG PINEY      CLOUDY    17   9  70 NE10      30.22R WCI   5
PINEDALE       MOCLDY    18  12  79 NW10      30.22R WCI   6
DUBOIS         MOCLDY    19   9  63 NW17      30.14R WCI   4
LANDER         FAIR      23  10  57 SW3       30.10R
RIVERTON       FAIR      15   5  64 W7        30.12R WCI   5
CASPER         FAIR      22  14  71 SW23      30.12S WCI   6
DOUGLAS        CLOUDY    28  17  63 W10G25    30.10S WCI  19

$$
WYZ021-027>030-104>119-050200-
SOUTHERN WYOMING

CITY           SKY/WX    TMP DP  RH WIND       PRES   REMARKS
EVANSTON       CLOUDY    19  15  84 SW12      30.29R WCI   7
FORT BRIDGER   LGT SNOW  23  21  93 W28       30.29S WCI   6
ROCK SPRINGS   CLOUDY    20  14  77 W20       30.23S WCI   4
DIXON          LGT SNOW  19  16  85 SW9       30.30R WCI   9
RAWLINS        CLOUDY    18  12  77 SW24G32   30.16S WCI   0
SARATOGA       CLOUDY    21  12  68 SW12      30.19S WCI   9
LARAMIE        MOCLDY    20  10  65 SW21      30.09R WCI   4
CHEYENNE       CLOUDY    28  12  51 W20       30.10F WCI  15
TORRINGTON     CLOUDY    29  21  72 W14       30.14R WCI  18
PINE BLUFFS    CLOUDY    28  18  64 W9        30.15S WCI  20

$$




USA.gov is the U.S. government's official web portal to all federal, state and local government web resources and services.